GW3550 Weather Reports


Display with metric or nautical units.
time (UTC)temp
F
wind
direction
speed
MPH
gust
MPH
rain 1hr
in
rain 24hr
in
rain mn
in
humidity
%
barometer
mb
20260906222314 93 184 0.0 0.0 0.00 0.00 0.00 57 1012.5
20260906221812 92 184 1.0 3.0 0.00 0.00 0.00 58 1012.7
20260906221307 92 121 1.0 6.0 0.00 0.00 0.00 59 1012.8
20260906220803 92 345 0.0 3.0 0.00 0.00 0.00 57 1012.8
20260906220257 93 13 3.0 3.0 0.00 0.00 0.00 57 1012.8
20260906215757 93 191 1.0 4.0 0.00 0.00 0.00 57 1012.9
20260906215257 96 108 2.0 4.0 0.00 0.00 0.00 53 1012.7
20260906214755 95 355 1.0 2.0 0.00 0.00 0.00 50 1012.5
20260906214250 98 242 1.0 2.0 0.00 0.00 0.00 48 1012.6
20260906213744 96 206 0.0 0.0 0.00 0.00 0.00 48 1012.7
20260906213243 96 233 2.0 3.0 0.00 0.00 0.00 50 1012.8
20260906212741 96 250 1.0 1.0 0.00 0.00 0.00 50 1012.4
20260906212237 95 247 0.0 1.0 0.00 0.00 0.00 51 1012.3
20260906211736 95 218 1.0 2.0 0.00 0.00 0.00 50 1012.4
20260906211232 96 249 2.0 4.0 0.00 0.00 0.00 50 1012.3
20260906210726 97 222 0.0 2.0 0.00 0.00 0.00 48 1012.3
20260906210221 97 183 1.0 3.0 0.00 0.00 0.00 47 1012.5
20260906205716 98 233 0.0 1.0 0.00 0.00 0.00 48 1012.5
20260906205213 97 231 0.0 1.0 0.00 0.00 0.00 48 1012.6
20260906204713 97 254 2.0 3.0 0.00 0.00 0.00 47 1012.3
20260906204207 97 235 2.0 3.0 0.00 0.00 0.00 47 1012.6
20260906203707 96 216 0.0 3.0 0.00 0.00 0.00 51 1012.3
20260906203202 96 251 1.0 3.0 0.00 0.00 0.00 49 1012.7
20260906202659 96 224 1.0 2.0 0.00 0.00 0.00 49 1012.8
20260906202157 93 254 2.0 3.0 0.00 0.00 0.00 50 1013.0
20260906201653 93 285 2.0 4.0 0.00 0.00 0.00 50 1012.9
20260906201152 94 255 1.0 2.0 0.00 0.00 0.00 51 1012.7
20260906200648 93 231 0.0 2.0 0.00 0.00 0.00 52 1013.0
20260906200144 94 247 1.0 2.0 0.00 0.00 0.00 52 1013.1
20260906195639 94 213 0.0 1.0 0.00 0.00 0.00 49 1013.1
20260906195136 94 235 2.0 4.0 0.00 0.00 0.00 49 1013.2
20260906194631 95 258 2.0 3.0 0.00 0.00 0.00 49 1013.3
20260906194126 97 265 0.0 0.0 0.00 0.00 0.00 48 1013.2
20260906193626 97 239 0.0 6.0 0.00 0.00 0.00 49 1013.4
20260906193121 96 204 0.0 2.0 0.00 0.00 0.00 53 1013.5
20260906192617 96 239 1.0 2.0 0.00 0.00 0.00 53 1013.6
20260906192116 95 241 0.0 0.0 0.00 0.00 0.00 53 1013.4
20260906191611 95 226 0.0 2.0 0.00 0.00 0.00 53 1013.8
20260906191110 95 68 2.0 2.0 0.00 0.00 0.00 54 1013.8
20260906190605 94 24 1.0 2.0 0.00 0.00 0.00 54 1014.0
20260906190100 94 29 1.0 2.0 0.00 0.00 0.00 53 1014.2
20260906185559 94 220 0.0 0.0 0.00 0.00 0.00 53 1014.2
20260906185058 94 220 0.0 2.0 0.00 0.00 0.00 54 1014.2
20260906184553 93 181 0.0 1.0 0.00 0.00 0.00 54 1014.3
20260906184048 94 358 2.0 3.0 0.00 0.00 0.00 52 1014.5
20260906183544 93 218 0.0 0.0 0.00 0.00 0.00 55 1014.4
20260906183040 92 231 0.0 1.0 0.00 0.00 0.00 53 1014.6
20260906182535 93 233 0.0 1.0 0.00 0.00 0.00 55 1014.6
20260906182031 94 247 3.0 4.0 0.00 0.00 0.00 53 1014.6
20260906181526 95 239 0.0 2.0 0.00 0.00 0.00 51 1014.8
20260906181022 93 230 1.0 2.0 0.00 0.00 0.00 53 1014.8
20260906180516 93 357 3.0 4.0 0.00 0.00 0.00 51 1014.7
20260906180015 95 21 1.0 2.0 0.00 0.00 0.00 49 1014.8
20260906175509 94 235 1.0 3.0 0.00 0.00 0.00 53 1014.9
20260906175009 93 41 4.0 4.0 0.00 0.00 0.00 48 1014.7
20260906174502 94 76 2.0 4.0 0.00 0.00 0.00 53 1014.6
20260906173956 94 26 1.0 6.0 0.00 0.00 0.00 59 1014.8
20260906173452 93 250 1.0 2.0 0.00 0.00 0.00 58 1014.7
20260906172951 93 255 2.0 4.0 0.00 0.00 0.00 60 1015.1
20260906172447 93 221 1.0 2.0 0.00 0.00 0.00 58 1015.1
20260906171943 91 246 0.0 2.0 0.00 0.00 0.00 59 1015.1
20260906171437 93 40 2.0 4.0 0.00 0.00 0.00 58 1014.9
20260906170933 93 194 0.0 1.0 0.00 0.00 0.00 63 1015.3
20260906170429 91 230 0.0 1.0 0.00 0.00 0.00 63 1015.3
20260906165925 94 60 3.0 4.0 0.00 0.00 0.00 62 1015.5
20260906165425 93 136 1.0 3.0 0.00 0.00 0.00 62 1015.4
20260906164920 91 265 0.0 1.0 0.00 0.00 0.00 62 1015.5
20260906164418 91 237 2.0 2.0 0.00 0.00 0.00 61 1015.4
20260906163915 91 232 0.0 0.0 0.00 0.00 0.00 65 1015.6
20260906163411 90 82 0.0 1.0 0.00 0.00 0.00 67 1015.7
20260906162909 89 37 0.0 1.0 0.00 0.00 0.00 68 1015.6
20260906162408 89 24 0.0 2.0 0.00 0.00 0.00 71 1015.8
20260906161903 89 169 2.0 3.0 0.00 0.00 0.00 70 1015.8
20260906161402 89 238 0.0 1.0 0.00 0.00 0.00 71 1015.9
20260906160901 88 76 0.0 1.0 0.00 0.00 0.00 73 1015.9
20260906160355 88 57 2.0 3.0 0.00 0.00 0.00 69 1015.8
20260906155853 88 57 1.0 2.0 0.00 0.00 0.00 71 1016.0
20260906155347 88 239 0.0 2.0 0.00 0.00 0.00 71 1015.8
20260906154844 90 318 0.0 1.0 0.00 0.00 0.00 70 1016.0
20260906154337 89 33 2.0 3.0 0.00 0.00 0.00 70 1015.9
20260906153830 90 193 1.0 3.0 0.00 0.00 0.00 69 1016.0
20260906153324 88 231 0.0 1.0 0.00 0.00 0.00 70 1016.1
20260906152820 88 223 0.0 2.0 0.00 0.00 0.00 72 1016.0
20260906152315 87 265 0.0 1.0 0.00 0.00 0.00 74 1016.1
20260906151814 86 83 1.0 3.0 0.00 0.00 0.00 73 1016.0
20260906151310 85 30 2.0 3.0 0.00 0.00 0.00 76 1016.3
20260906150805 86 27 1.0 2.0 0.00 0.00 0.00 75 1016.0
20260906150301 85 12 0.0 1.0 0.00 0.00 0.00 75 1016.1
20260906145759 85 50 0.0 3.0 0.00 0.00 0.00 76 1016.1
20260906145258 86 21 3.0 4.0 0.00 0.00 0.00 75 1016.0
20260906144753 85 39 1.0 3.0 0.00 0.00 0.00 77 1016.0
20260906144248 86 36 2.0 3.0 0.00 0.00 0.00 75 1016.1
20260906143748 85 4 3.0 3.0 0.00 0.00 0.00 74 1016.1
20260906143245 85 239 0.0 2.0 0.00 0.00 0.00 76 1016.2
20260906142744 84 232 0.0 0.0 0.00 0.00 0.00 78 1016.2
20260906142240 85 292 0.0 1.0 0.00 0.00 0.00 76 1016.2
20260906141738 85 41 1.0 4.0 0.00 0.00 0.00 77 1016.3
20260906141233 85 84 1.0 2.0 0.00 0.00 0.00 76 1016.3
20260906140733 85 270 0.0 2.0 0.00 0.00 0.00 74 1016.0
20260906140228 84 176 1.0 3.0 0.00 0.00 0.00 78 1016.2
20260906135724 84 232 0.0 4.0 0.00 0.00 0.00 78 1016.0
20260906135221 84 7 0.0 2.0 0.00 0.00 0.00 78 1016.2
20260906134716 83 60 0.0 2.0 0.00 0.00 0.00 79 1016.0
20260906134211 83 264 1.0 2.0 0.00 0.00 0.00 78 1016.0
20260906133707 81 246 0.0 0.0 0.00 0.00 0.00 82 1015.9
20260906133202 81 255 1.0 3.0 0.00 0.00 0.00 82 1016.0
20260906132657 81 260 2.0 4.0 0.00 0.00 0.00 81 1015.9
20260906132153 80 246 0.0 3.0 0.00 0.00 0.00 82 1016.0
20260906131648 80 245 0.0 2.0 0.00 0.00 0.00 84 1016.1
20260906131143 79 250 1.0 4.0 0.00 0.00 0.00 85 1016.2
20260906130638 79 233 0.0 0.0 0.00 0.00 0.00 85 1015.9
20260906130133 79 243 0.0 2.0 0.00 0.00 0.00 86 1016.1
20260906125630 79 243 0.0 0.0 0.00 0.00 0.00 84 1015.8
20260906125124 80 265 0.0 0.0 0.00 0.00 0.00 82 1015.6
20260906124620 80 299 0.0 0.0 0.00 0.00 0.00 84 1015.7
20260906124115 79 244 0.0 0.0 0.00 0.00 0.00 86 1015.6
20260906123614 77 244 0.0 1.0 0.00 0.00 0.00 88 1015.8
20260906123109 77 244 0.0 0.0 0.00 0.00 0.00 90 1015.9
20260906122608 76 222 0.0 0.0 0.00 0.00 0.00 91 1015.7
20260906122104 76 264 0.0 0.0 0.00 0.00 0.00 93 1015.7
20260906121600 76 264 0.0 0.0 0.00 0.00 0.00 94 1015.5
20260906121057 75 264 0.0 0.0 0.00 0.00 0.00 94 1015.5
20260906120551 75 264 0.0 0.0 0.00 0.00 0.00 94 1015.6
20260906120049 75 264 0.0 0.0 0.00 0.00 0.00 93 1015.5
20260906115548 75 264 0.0 0.0 0.00 0.00 0.00 92 1015.6
20260906115044 75 264 0.0 0.0 0.00 0.00 0.00 92 1015.4
20260906114538 74 264 0.0 0.0 0.00 0.00 0.00 93 1015.3
20260906114034 73 264 0.0 0.0 0.00 0.00 0.00 93 1015.4
20260906113532 73 264 0.0 0.0 0.00 0.00 0.00 94 1015.3
20260906113028 73 264 0.0 0.0 0.00 0.00 0.00 94 1015.4
20260906112523 73 264 0.0 0.0 0.00 0.00 0.00 94 1015.5
20260906112019 73 264 0.0 0.0 0.00 0.00 0.00 95 1015.4
20260906111519 73 264 0.0 0.0 0.00 0.00 0.00 94 1015.5
20260906111014 73 264 0.0 0.0 0.00 0.00 0.00 94 1015.3
20260906110508 73 265 0.0 0.0 0.00 0.00 0.00 94 1015.3
20260906110007 73 265 0.0 0.0 0.00 0.00 0.00 94 1015.2
20260906105503 73 265 0.0 0.0 0.00 0.00 0.00 94 1015.2
20260906104959 73 265 0.0 0.0 0.00 0.00 0.00 94 1015.1
20260906104457 73 265 0.0 0.0 0.00 0.00 0.00 94 1015.1
20260906103956 73 264 0.0 0.0 0.00 0.00 0.00 93 1015.2
20260906103455 73 263 0.0 0.0 0.00 0.00 0.00 94 1015.1
20260906102950 73 262 0.0 1.0 0.00 0.00 0.00 94 1015.0
20260906102444 73 262 0.0 0.0 0.00 0.00 0.00 94 1015.1
20260906101939 74 261 1.0 3.0 0.00 0.00 0.00 92 1014.8
20260906101434 74 262 0.0 1.0 0.00 0.00 0.00 93 1015.0
20260906100930 73 256 0.0 2.0 0.00 0.00 0.00 94 1014.9
20260906100429 73 256 1.0 1.0 0.00 0.00 0.00 95 1015.1
20260906095924 72 256 1.0 2.0 0.00 0.00 0.00 97 1015.0
20260906095420 72 258 1.0 1.0 0.00 0.00 0.00 99 1015.0
20260906094914 72 258 0.0 1.0 0.00 0.00 0.00 99 1014.9
20260906094408 72 258 1.0 1.0 0.00 0.00 0.00 99 1015.1
20260906093905 72 258 0.0 0.0 0.00 0.00 0.00 99 1014.9
20260906093401 72 258 0.0 0.0 0.00 0.00 0.00 99 1015.0
20260906092855 72 235 0.0 0.0 0.00 0.00 0.00 99 1015.2
20260906092355 72 235 0.0 0.0 0.00 0.00 0.00 99 1015.1
20260906091850 72 245 0.0 0.0 0.00 0.00 0.00 99 1015.3
20260906091347 72 238 0.0 0.0 0.00 0.00 0.00 99 1015.1
20260906090843 72 241 0.0 0.0 0.00 0.00 0.00 99 1015.1
20260906090342 72 237 0.0 0.0 0.00 0.00 0.00 99 1015.2
20260906085836 72 241 0.0 0.0 0.00 0.00 0.00 99 1015.2
20260906085335 72 241 0.0 0.0 0.00 0.00 0.00 99 1015.1
20260906084830 72 237 0.0 0.0 0.00 0.00 0.00 99 1015.1
20260906084330 72 241 0.0 0.0 0.00 0.00 0.00 99 1015.2
20260906083824 72 241 0.0 0.0 0.00 0.00 0.00 99 1015.2
20260906083320 72 241 0.0 0.0 0.00 0.00 0.00 99 1015.2
20260906082815 72 241 0.0 0.0 0.00 0.00 0.00 99 1015.0
20260906082309 72 237 0.0 0.0 0.00 0.00 0.00 99 1014.9
20260906081800 72 241 0.0 1.0 0.00 0.00 0.00 99 1014.8
20260906081255 72 241 0.0 0.0 0.00 0.00 0.00 99 1014.9
20260906080751 72 237 0.0 0.0 0.00 0.00 0.00 99 1015.0
20260906080248 72 241 0.0 1.0 0.00 0.00 0.00 99 1014.9
20260906075741 72 246 0.0 1.0 0.00 0.00 0.00 99 1015.0
20260906075236 72 223 0.0 1.0 0.00 0.00 0.00 99 1015.1
20260906074731 72 255 1.0 2.0 0.00 0.00 0.00 99 1014.8
20260906074230 72 246 1.0 3.0 0.00 0.00 0.00 99 1014.9
20260906073725 72 241 1.0 2.0 0.00 0.00 0.00 99 1015.0
20260906073220 72 235 2.0 3.0 0.00 0.00 0.00 99 1015.2
20260906072715 71 233 0.0 0.0 0.00 0.00 0.00 99 1015.0
20260906072211 72 233 0.0 0.0 0.00 0.00 0.00 99 1015.2
20260906071707 72 233 0.0 0.0 0.00 0.00 0.00 99 1015.1
20260906071206 72 233 0.0 0.0 0.00 0.00 0.00 99 1015.2
20260906070703 72 233 0.0 0.0 0.00 0.00 0.00 99 1015.2
20260906070158 72 233 0.0 0.0 0.00 0.00 0.00 99 1015.0
20260906065658 72 233 0.0 0.0 0.00 0.00 0.00 99 1015.2
20260906065153 72 233 0.0 1.0 0.00 0.00 0.00 99 1015.2
20260906064648 72 233 0.0 1.0 0.00 0.00 0.00 99 1015.2
20260906064144 72 233 0.0 0.0 0.00 0.00 0.00 99 1015.2
20260906063639 72 233 0.0 0.0 0.00 0.00 0.00 99 1015.3
20260906063135 72 233 0.0 0.0 0.00 0.00 0.00 99 1015.1
20260906062631 72 233 0.0 0.0 0.00 0.00 0.00 99 1015.2
20260906062129 72 233 0.0 0.0 0.00 0.00 0.00 99 1015.3
20260906061625 73 233 0.0 0.0 0.00 0.00 0.00 99 1015.4
20260906061125 73 233 0.0 0.0 0.00 0.00 0.00 99 1015.5
20260906060622 73 233 0.0 0.0 0.00 0.00 0.00 99 1015.7
20260906060120 73 233 0.0 0.0 0.00 0.00 0.00 99 1015.4
20260906055615 73 233 0.0 0.0 0.00 0.00 0.00 99 1015.4
20260906055110 73 233 0.0 0.0 0.00 0.00 0.00 99 1015.6
20260906054610 74 237 0.0 3.0 0.00 0.00 0.00 99 1015.7
20260906054100 73 228 2.0 3.0 0.00 0.00 0.00 99 1015.6
20260906053556 74 251 0.0 3.0 0.00 0.00 0.00 99 1015.9
20260906053052 73 232 2.0 2.0 0.00 0.00 0.00 99 1016.0
20260906052547 73 237 1.0 2.0 0.00 0.00 0.00 99 1015.9
20260906052044 73 242 0.0 2.0 0.00 0.00 0.00 99 1016.1
20260906051539 73 238 0.0 1.0 0.00 0.00 0.00 99 1016.1
20260906051034 73 245 0.0 2.0 0.00 0.00 0.00 99 1016.2
20260906050529 72 234 1.0 2.0 0.00 0.00 0.00 99 1016.1
20260906050024 73 244 0.0 1.0 0.00 0.00 0.00 99 1016.1
20260906045523 72 237 0.0 0.0 0.00 0.00 0.00 99 1016.2
20260906045019 72 228 0.0 2.0 0.00 0.00 0.00 99 1016.3
20260906044514 72 233 0.0 1.0 0.00 0.00 0.00 99 1016.1
20260906044010 72 240 0.0 0.0 0.00 0.00 0.00 99 1016.2
20260906043505 72 240 0.0 2.0 0.00 0.00 0.00 99 1015.8
20260906043001 72 240 0.0 0.0 0.00 0.00 0.00 99 1016.2
20260906042459 72 240 0.0 0.0 0.00 0.00 0.00 99 1015.8
20260906041959 72 240 0.0 1.0 0.00 0.00 0.00 99 1015.8
20260906041455 72 240 0.0 0.0 0.00 0.00 0.00 99 1015.8
20260906040955 72 240 0.0 0.0 0.00 0.00 0.00 99 1016.1
20260906040450 72 240 0.0 2.0 0.00 0.00 0.00 99 1016.0
20260906035939 72 239 0.0 1.0 0.00 0.03 0.03 99 1015.8
20260906035434 72 246 0.0 0.0 0.00 0.03 0.03 99 1015.8
20260906034930 72 237 0.0 0.0 0.00 0.03 0.03 99 1015.9
20260906034425 71 237 0.0 0.0 0.00 0.03 0.03 99 1016.3
20260906033920 71 237 0.0 0.0 0.00 0.03 0.03 99 1016.1
20260906033415 72 237 0.0 0.0 0.00 0.03 0.03 99 1016.0
20260906032911 72 234 0.0 0.0 0.00 0.03 0.03 99 1016.1
20260906032407 71 240 0.0 0.0 0.00 0.03 0.03 99 1016.1
20260906031901 72 244 0.0 0.0 0.00 0.03 0.03 99 1016.1
20260906031356 71 234 0.0 0.0 0.00 0.03 0.03 99 1016.2
20260906030851 71 232 0.0 0.0 0.00 0.03 0.03 99 1016.3
20260906030346 71 235 0.0 0.0 0.00 0.03 0.03 99 1016.3
20260906025840 71 228 0.0 0.0 0.00 0.03 0.03 99 1016.5
20260906025334 72 230 0.0 0.0 0.00 0.03 0.03 99 1016.4
20260906024833 71 227 0.0 0.0 0.00 0.03 0.03 99 1016.2
20260906024327 72 227 0.0 0.0 0.00 0.03 0.03 99 1016.3
20260906023823 72 226 0.0 0.0 0.00 0.03 0.03 98 1016.8
20260906023319 71 224 0.0 0.0 0.00 0.03 0.03 98 1016.8
20260906022814 72 232 0.0 0.0 0.00 0.03 0.03 98 1016.6
20260906022309 72 232 0.0 0.0 0.00 0.03 0.03 98 1016.3
20260906021805 72 233 0.0 0.0 0.00 0.03 0.03 97 1016.3
20260906021304 72 235 0.0 0.0 0.00 0.03 0.03 97 1016.5
20260906020758 72 235 0.0 0.0 0.00 0.03 0.03 97 1016.7
20260906020252 73 235 0.0 0.0 0.00 0.03 0.03 96 1016.6
20260906015747 72 233 0.0 0.0 0.00 0.03 0.03 97 1016.6
20260906015245 72 231 0.0 0.0 0.00 0.03 0.03 96 1016.8
20260906014740 73 234 0.0 0.0 0.00 0.03 0.03 96 1016.7
20260906014236 73 241 0.0 0.0 0.00 0.03 0.03 96 1016.7
20260906013732 73 251 0.0 0.0 0.00 0.03 0.03 95 1016.6
20260906013232 73 217 0.0 0.0 0.00 0.03 0.03 96 1016.4
20260906012727 73 237 0.0 0.0 0.00 0.03 0.03 96 1016.1
20260906012222 73 237 0.0 0.0 0.00 0.03 0.03 97 1016.3
20260906011717 73 273 0.0 0.0 0.00 0.03 0.03 96 1016.2
20260906011211 73 280 0.0 0.0 0.00 0.03 0.03 96 1015.9
20260906010707 72 241 0.0 0.0 0.00 0.03 0.03 96 1015.9
20260906010203 72 176 0.0 2.0 0.00 0.03 0.03 97 1015.9
20260906005703 72 223 0.0 0.0 0.00 0.03 0.03 97 1015.9
20260906005202 72 220 0.0 0.0 0.00 0.03 0.03 97 1016.3
20260906004701 72 232 0.0 2.0 0.00 0.03 0.03 97 1016.2
20260906004156 72 228 0.0 0.0 0.00 0.03 0.03 97 1016.0
20260906003646 72 216 0.0 0.0 0.00 0.03 0.03 97 1015.5
20260906003142 72 220 0.0 0.0 0.00 0.03 0.03 96 1015.4
20260906002642 72 228 0.0 0.0 0.00 0.03 0.03 96 1015.4
20260906002136 73 230 0.0 0.0 0.00 0.03 0.03 96 1015.2
20260906001632 73 211 0.0 0.0 0.00 0.03 0.03 96 1015.3
20260906001131 73 231 0.0 0.0 0.00 0.03 0.03 96 1015.2
20260906000627 73 103 0.0 1.0 0.00 0.03 0.03 95 1014.8
20260906000123 73 102 0.0 1.0 0.00 0.03 0.03 95 1014.4
20260905235621 73 244 0.0 1.0 0.00 0.03 0.03 95 1014.4
20260905235117 73 244 0.0 1.0 0.00 0.03 0.03 95 1014.7
20260905234612 73 18 0.0 2.0 0.00 0.03 0.03 95 1014.6
20260905234108 73 232 2.0 2.0 0.00 0.03 0.03 95 1014.8
20260905233607 73 253 1.0 2.0 0.00 0.03 0.03 95 1015.0
20260905233102 73 277 0.0 0.0 0.00 0.03 0.03 96 1014.6
20260905232557 72 40 1.0 2.0 0.00 0.03 0.03 95 1015.0
20260905232053 73 260 0.0 1.0 0.00 0.03 0.03 96 1015.1
20260905231548 72 174 1.0 1.0 0.00 0.03 0.03 96 1015.1
20260905231044 72 118 0.0 0.0 0.00 0.03 0.03 97 1015.1
20260905230543 72 269 0.0 1.0 0.00 0.03 0.03 97 1015.1
20260905230042 72 182 0.0 1.0 0.00 0.03 0.03 96 1014.7
20260905225537 73 53 1.0 3.0 0.00 0.03 0.03 95 1014.8
20260905225032 73 146 0.0 0.0 0.00 0.03 0.03 94 1014.4
20260905224526 74 78 0.0 3.0 0.00 0.03 0.03 92 1014.5
20260905224026 75 15 4.0 6.0 0.00 0.03 0.03 89 1014.6
20260905223524 75 246 4.0 4.0 0.00 0.03 0.03 91 1014.4
20260905223019 74 252 1.0 2.0 0.00 0.03 0.03 89 1014.2
20260905222513 75 242 0.0 1.0 0.00 0.03 0.03 90 1014.3